Home > Weather > Osaka > Past weeks

Flag for Japan Past Weather in Osaka, Japan — Yesterday and Last 2 Weeks

Now
73 °F

Fog.


Feels Like: 68 °F
Forecast: 71 / 80 °F
Wind: 1 mph from North

Location: Kansai International Airport

Current Time: Jun 30, 2016 at 3:12:19 AM

Latest Report: Jun 30, 2016 at 2:30 AM


Visibility: 3 mi

Pressure: 29.89 "Hg

Humidity: 100%

Dew Point: 73 °F

Location of OsakaLocation

Past Weather in Osaka — Graph

°F

Osaka Temperature Yesterday

Maximum temperature yesterday: 77 °F (at 11:00 AM)
Minimum temperature yesterday: 70 °F (at 12:00 AM)
Average temperature yesterday: 73 °F

High & Low Weather Summary for the Past Weeks

 TemperatureHumidityPressure
High84 °F (Jun 15, 12:30 PM)100% (Jun 16, 11:00 AM)29.98 "Hg (Jun 16, 11:00 AM)
Low66 °F (Jun 27, 10:30 PM)48% (Jun 18, 2:30 PM)29.42 "Hg (Jun 25, 12:30 AM)
Average74 °F83%29.76 "Hg
* Reported Jun 15 2:00 AM — Jun 30 2:00 AM, Osaka, Weather by CustomWeather, © 2016

Note: Actual official high and low records may vary slightly from our data, if they occured in-between our weather recording intervals... More about our weather records

Advertising

Osaka Weather History for the Previous 24 Hours

Scroll right to see more
 ConditionsComfort  
Time TempWeatherWind HumidityBarometerVisibility
2:00 AM
Thu, Jun 30
73 °FFog.3 mph100%29.89 "Hg2 mi
1:30 AM73 °FFog.1 mph100%29.89 "Hg4 mi
1:00 AM73 °FFog.1 mph100%29.89 "Hg4 mi
12:30 AM73 °FFog.2 mph100%29.89 "Hg3 mi
12:00 AM73 °FFog.1 mph100%29.89 "Hg4 mi
11:30 PM
Wed, Jun 29
73 °FPassing clouds.No wind100%29.89 "Hg5 mi
11:00 PM73 °FPartly cloudy.1 mph100%29.89 "HgN/A
10:30 PM75 °FPartly cloudy.3 mph94%29.89 "HgN/A
10:00 PM75 °FPassing clouds.1 mph94%29.89 "HgN/A
9:30 PM73 °FPassing clouds.1 mph100%29.89 "HgN/A
9:00 PM73 °FPassing clouds.2 mph100%29.89 "HgN/A
8:30 PM75 °FSprinkles. Partly cloudy.3 mph94%29.89 "HgN/A
8:00 PM75 °FPassing clouds.2 mph94%29.92 "HgN/A
7:30 PM75 °FPassing clouds.3 mph94%29.89 "HgN/A
7:00 PM75 °FSprinkles. Broken clouds.5 mph94%29.89 "HgN/A
6:30 PM75 °FSprinkles. Broken clouds.8 mph94%29.86 "HgN/A
6:00 PM75 °FPartly sunny.7 mph94%29.86 "HgN/A
5:30 PM75 °FBroken clouds.7 mph94%29.86 "Hg6 mi
5:00 PM75 °FFog.3 mph94%29.83 "Hg4 mi
4:30 PM73 °FSprinkles. Fog.6 mph100%29.83 "Hg5 mi
4:00 PM73 °FSprinkles. Fog.6 mph94%29.83 "Hg5 mi
3:30 PM72 °FMild.9 mph100%29.86 "Hg1 mi
3:00 PM72 °FRain showers. Fog.8 mph100%29.89 "Hg2 mi
2:30 PM73 °FSprinkles. Fog.2 mph94%29.89 "Hg4 mi
2:00 PM73 °FSprinkles. Fog.2 mph94%29.92 "Hg4 mi
1:30 PM73 °FSprinkles. Fog.1 mph94%29.89 "Hg4 mi
1:00 PM73 °FRain showers. Fog.3 mph89%29.89 "Hg3 mi
12:30 PM75 °FSprinkles. Broken clouds.6 mph78%29.89 "Hg5 mi
12:00 PM77 °FScattered showers. Broken clouds.6 mph79%29.92 "HgN/A
11:30 AM77 °FSprinkles. Broken clouds.7 mph79%29.92 "HgN/A
11:00 AM77 °FPartly sunny.2 mph79%29.92 "HgN/A
10:30 AM75 °FBroken clouds.3 mph83%29.92 "HgN/A
10:00 AM75 °FBroken clouds.5 mph83%29.92 "HgN/A
9:30 AM75 °FBroken clouds.3 mph83%29.92 "HgN/A
9:00 AM73 °FBroken clouds.5 mph89%29.92 "HgN/A
8:30 AM73 °FBroken clouds.3 mph89%29.95 "Hg5 mi
8:00 AM72 °FBroken clouds.5 mph88%29.95 "Hg4 mi
7:30 AM72 °FBroken clouds.6 mph94%29.95 "Hg5 mi
7:00 AM72 °FBroken clouds.6 mph88%29.95 "HgN/A
6:30 AM72 °FBroken clouds.8 mph88%29.95 "HgN/A
6:00 AM72 °FBroken clouds.6 mph88%29.92 "HgN/A
5:30 AM72 °FBroken clouds.5 mph88%29.92 "HgN/A
5:00 AM72 °FBroken clouds.5 mph88%29.92 "HgN/A
4:30 AM72 °FPartly cloudy.3 mph88%29.92 "HgN/A
4:00 AM70 °FSprinkles. Partly cloudy.6 mph94%29.92 "HgN/A
3:30 AM70 °FPassing clouds.3 mph94%29.92 "HgN/A
3:00 AM70 °FPassing clouds.3 mph94%29.92 "HgN/A
Weather by CustomWeather, © 2016

See weather overviewHow to use our weather pages